Regional Weather Roundup
Issued by NWS Portland, ME

Current Version | Previous Version | Text Only | Print | Product List | Glossary Off
Versions: 1 2 3 4 5 6 7 8 9 10 11 12 13 14 15 16 17 18 19 20 21 22 23 24 25 26 27 28 29 30 31 32 33 34 35 36 37 38 39 40 41 42 43 44 45 46 47 48 49 50
000 ASUS41 KGYX 201505 RWRGYX WEATHER ROUNDUP FOR MAINE AND NEW HAMPSHIRE NATIONAL WEATHER SERVICE GRAY ME 1100 AM EDT WED JUN 20 2018 MEZ002-005-006-010-012-015-018-020-021-024-026-027-029-201600- MAINE CITY SKY/WX TMP DP RH WIND PRES REMARKS PORTLAND FAIR 78 43 28 S14 29.84F SANFORD FAIR 76 48 37 SW8 29.86F BAR HARBOR FAIR 74 50 42 SW6 29.81F WISCASSET FAIR 76 44 32 SW9 29.84F ROCKLAND FAIR 76 45 33 W14G20 29.82F FRYEBURG FAIR 76 48 37 S9 29.83F LEWISTONAUBURN FAIR 75 47 36 SW13 29.83F AUGUSTA FAIR 75 44 33 SW10G18 29.83F WATERVILLE FAIR 74 51 44 SW8 29.79F BANGOR FAIR 76 48 37 SW8 29.80F GREENVILLE N/A 71 49 45 VRB5 29.78F MILLINOCKET FAIR 76 46 34 W10G20 29.76F HOULTON FAIR 75 50 41 W15G28 29.70F PRESQUE ISLE FAIR 75 49 39 W16G25 29.67F FRENCHVILLE CLOUDY 67 49 52 W9 29.64F CARIBOU PTSUNNY 73 48 41 W17 29.65F $$ NHZ002-005-008-009-011-012-014-201600- NEW HAMPSHIRE CITY SKY/WX TMP DP RH WIND PRES REMARKS PORTSMOUTH PTSUNNY 77 45 31 S7 29.85F ROCHESTER FAIR 77 49 37 CALM 29.85F NASHUA FAIR 75 51 43 VRB3 29.87F MANCHESTER PTSUNNY 77 47 34 SW10 29.85F CONCORD FAIR 76 49 38 SW12 29.86F LACONIA FAIR 74 49 41 SW13 29.86F PLYMOUTH FAIR 74 46 37 CALM 29.85F BERLIN FAIR 72 50 45 VRB5 29.85F WHITEFIELD FAIR 72 48 42 W7 29.86F JAFFREY FAIR 73 51 46 SW10 29.90F KEENE FAIR 76 50 40 W6 29.89F LEBANON FAIR 73 51 46 S6 29.86F MT WASHINGTON PTSUNNY 46 34 61 W28 N/A $$ VTZ005-007-008-201600- VERMONT CITY SKY/WX TMP DP RH WIND PRES REMARKS ST JOHNSBURY N/A 70 51 51 MISG 29.84F MONTPELIER FAIR 70 49 47 W6 29.90F BURLINGTON PTSUNNY 73 52 47 S9 29.85F $$ MAZ007-012-024-CTZ003-RIZ002-NYZ038-NYZ072-201600- SOUTHERN NEW ENGLAND AND NY CITY SKY/WX TMP DP RH WIND PRES REMARKS BOSTON PTSUNNY 73 51 46 SE5 29.87F WORCESTER FAIR 70 51 51 SW9 29.91S NANTUCKET FAIR 70 58 65 SW9 29.91S PROVIDENCE PTSUNNY 75 54 47 S6 29.89F HARTFORD PTSUNNY 72 53 51 SW7 29.89F ALBANY PTSUNNY 72 52 49 CALM 29.90F NEW YORK CITY PTSUNNY 74 52 46 NE8 29.89F $$ ANZ081-ANZ082-ANZ150-NHZ014-MEZ023>029-201600- COASTAL MARINE OBSERVATIONS STATION/POSITION TIME TEMP WIND PRES WAVE AIR SEA DIR/SP/G HT/PER (UTC) (F) (DEG/KT/KT) (MB) (FT/S) MOUNT DESERT ROC 1500 55 210/ 16/ 16 1010.8F MATINICUS ROCK 1400 58 240/ 14/ 15 1010.5F ISLE OF SHOALS 1400 66 220/ 10/ 10 1011.4F JEFFREYS LEDGE 1436 58 N/A 2/ 7 $$ .............KEY.............. WCI - WIND CHILL TC - TEMPERATURE IN CELSIUS VSB - VISIBILITY IN MILES HX - HEAT INDEX FAIR- INDICATES FEW OR NO CLOUDS BELOW 12,000 FT, WITH NO SIGNIFICANT WEATHER AND/OR OBSTRUCTIONS TO VISIBILITY.

USA.gov is the U.S. government's official web portal to all federal, state and local government web resources and services.